Stevens Point, WI

12:30 AM CST on February 09, 2016 (GMT -0600)
Stevens Point Municipal

Weather History for KSTE - January, 2015

Change the Weather History Date:

Friday, January 23, 2015

  Actual Average Record
Temperature  
Mean Temperature 28 °F -  
Max Temperature 32 °F 28 °F 53 °F (1964)
Min Temperature 23 °F 10 °F -33 °F (1963)
Degree Days  
Heating Degree Days 38    
Moisture  
Dew Point 22 °F    
Average Humidity 79    
Maximum Humidity 88    
Minimum Humidity 65    
Precipitation  
Precipitation 0.00 in - - ()
Sea Level Pressure  
Sea Level Pressure 29.94 in    
Wind  
Wind Speed 11 mph (WSW)    
Max Wind Speed 17 mph    
Max Gust Speed 23 mph    
Visibility 10 miles    
Events Snow    
Averages and records for this station are not official NWS values.
T = Trace of Precipitation, MM = Missing Value Source: NWS Daily Summary

Daily Weather History Graph

Daily Weather History Graph

Search for Another Location

Airport or City:

Trip Planner

Search our weather history database for the weather conditions in past years. The results will help you decide how hot, cold, wet, or windy it might be!

Date:

Astronomy

Jan. 23, 2015 Rise Set
Actual Time 7:25 AM CST 4:54 PM CST
Civil Twilight 6:54 AM CST 5:26 PM CST
Nautical Twilight 6:18 AM CST 6:01 PM CST
Astronomical Twilight 5:44 AM CST 6:36 PM CST
Moon 9:07 AM CST (1/23) 9:15 PM CST (1/23)
Length of Visible Light 10h 32m
Length of Day
9h 28m
Waxing Crescent, 14% of the Moon is Illuminated
Jan 23
Waxing Crescent
Jan 26
First Quarter
Feb 3
Full
Feb 11
Last Quarter
Feb 18
New

Hourly Weather History & Observations

Time (CST) Temp. Windchill Dew Point Humidity Pressure Visibility Wind Dir Wind Speed Gust Speed Precip Events Conditions
12:15 AM 24.6 °F 16.7 °F 21.0 °F 86% 30.20 in 10.0 mi SW 6.9 mph - N/A   Overcast
12:35 AM 24.4 °F 12.4 °F 21.0 °F 87% 30.19 in 10.0 mi SW 13.8 mph 18.4 mph N/A   Overcast
12:55 AM 24.4 °F 14.9 °F 21.0 °F 87% 30.19 in 10.0 mi WSW 9.2 mph 17.3 mph N/A   Overcast
1:15 AM 24.4 °F 14.2 °F 20.8 °F 86% 30.18 in 10.0 mi WSW 10.4 mph - N/A   Overcast
1:35 AM 24.3 °F 13.9 °F 20.5 °F 85% 30.18 in 10.0 mi WSW 10.4 mph 16.1 mph N/A   Overcast
1:55 AM 23.9 °F 11.7 °F 19.9 °F 85% 30.18 in 10.0 mi WSW 13.8 mph 21.9 mph N/A   Overcast
2:15 AM 23.4 °F 12.8 °F 19.8 °F 86% 30.18 in 10.0 mi WSW 10.4 mph 18.4 mph N/A   Overcast
2:35 AM 23.4 °F 11.6 °F 19.8 °F 86% 30.17 in 10.0 mi WSW 12.7 mph 18.4 mph N/A   Overcast
2:55 AM 23.0 °F 10.6 °F 19.6 °F 87% 30.16 in 10.0 mi SW 13.8 mph 17.3 mph N/A   Overcast
3:15 AM 23.0 °F 10.1 °F 19.4 °F 86% 30.15 in 10.0 mi SW 15.0 mph 20.7 mph N/A   Overcast
3:35 AM 23.4 °F 12.2 °F 19.6 °F 85% 30.14 in 10.0 mi SW 11.5 mph 23.0 mph N/A   Overcast
3:55 AM 23.4 °F 10.6 °F 19.8 °F 86% 30.13 in 10.0 mi SW 15.0 mph 19.6 mph N/A   Overcast
4:15 AM 23.4 °F 11.6 °F 19.9 °F 87% 30.12 in 10.0 mi WSW 12.7 mph 20.7 mph N/A   Overcast
4:35 AM 23.4 °F 12.8 °F 20.1 °F 87% 30.11 in 10.0 mi SW 10.4 mph - N/A   Overcast
4:55 AM 23.7 °F 12.1 °F 20.3 °F 87% 30.10 in 10.0 mi SW 12.7 mph 18.4 mph N/A   Overcast
5:15 AM 23.9 °F 12.3 °F 20.3 °F 86% 30.08 in 10.0 mi SW 12.7 mph - N/A   Overcast
5:35 AM 23.9 °F 12.9 °F 20.3 °F 86% 30.07 in 10.0 mi SW 11.5 mph 17.3 mph N/A   Overcast
5:55 AM 23.9 °F 11.2 °F 20.3 °F 86% 30.06 in 10.0 mi SW 15.0 mph 18.4 mph N/A   Overcast
6:15 AM 23.7 °F 12.1 °F 20.3 °F 87% 30.05 in 10.0 mi SW 12.7 mph 19.6 mph N/A   Overcast
6:35 AM 23.5 °F 10.8 °F 20.3 °F 87% 30.03 in 10.0 mi SW 15.0 mph 20.7 mph N/A   Overcast
6:55 AM 23.7 °F 12.1 °F 20.3 °F 87% 30.03 in 10.0 mi SW 12.7 mph 18.4 mph N/A   Overcast
7:15 AM 23.7 °F 12.1 °F 20.3 °F 87% 30.03 in 10.0 mi SW 12.7 mph 19.6 mph N/A   Overcast
7:35 AM 23.9 °F 11.7 °F 20.8 °F 88% 30.02 in 10.0 mi SW 13.8 mph 19.6 mph N/A   Overcast
7:55 AM 23.9 °F 11.7 °F 20.8 °F 88% 30.01 in 7.0 mi SW 13.8 mph 18.4 mph N/A   Overcast
8:15 AM 23.9 °F 10.8 °F 20.8 °F 88% 30.00 in 7.0 mi SW 16.1 mph 21.9 mph N/A   Overcast
8:35 AM 24.1 °F 12.0 °F 20.8 °F 87% 29.98 in 7.0 mi SW 13.8 mph 21.9 mph N/A   Overcast
8:55 AM 24.6 °F 13.2 °F 21.0 °F 86% 29.98 in 7.0 mi SSW 12.7 mph 20.7 mph N/A   Overcast
9:15 AM 25.2 °F 12.9 °F 21.2 °F 85% 29.97 in 7.0 mi SW 15.0 mph 23.0 mph N/A   Mostly Cloudy
9:35 AM 25.5 °F 12.4 °F 21.2 °F 84% 29.96 in 7.0 mi SW 17.3 mph 23.0 mph N/A   Overcast
9:55 AM 26.1 °F 13.1 °F 21.2 °F 82% 29.96 in 10.0 mi SW 17.3 mph 23.0 mph N/A   Overcast
10:15 AM 26.6 °F 13.8 °F 21.2 °F 80% 29.96 in 10.0 mi SW 17.3 mph 21.9 mph N/A   Overcast
10:35 AM 27.3 °F 17.1 °F 21.7 °F 80% 29.96 in 10.0 mi SW 11.5 mph 18.4 mph N/A   Mostly Cloudy
10:55 AM 27.5 °F 15.9 °F 21.7 °F 79% 29.95 in 10.0 mi SSW 15.0 mph - N/A   Mostly Cloudy
11:15 AM 27.7 °F 16.6 °F 21.9 °F 79% 29.94 in 10.0 mi SSW 13.8 mph - N/A   Overcast
11:35 AM 28.2 °F 17.2 °F 21.7 °F 77% 29.93 in 10.0 mi SSW 13.8 mph 17.3 mph N/A   Overcast
11:55 AM 28.9 °F 20.4 °F 21.9 °F 75% 29.91 in 10.0 mi SW 9.2 mph - N/A   Overcast
12:15 PM 29.8 °F 21.5 °F 21.9 °F 72% 29.90 in 10.0 mi SW 9.2 mph - N/A   Overcast
12:35 PM 30.2 °F 22.6 °F 22.1 °F 72% 29.89 in 10.0 mi SW 8.1 mph 16.1 mph N/A   Overcast
12:55 PM 30.9 °F 21.2 °F 21.9 °F 69% 29.87 in 10.0 mi SW 12.7 mph - N/A   Overcast
1:15 PM 31.1 °F 22.4 °F 21.7 °F 68% 29.87 in 10.0 mi WSW 10.4 mph 16.1 mph N/A   Overcast
1:35 PM 31.6 °F 22.6 °F 21.9 °F 67% 29.85 in 10.0 mi SW 11.5 mph 17.3 mph N/A   Overcast
1:55 PM 32.0 °F 24.8 °F 22.3 °F 67% 29.84 in 10.0 mi SW 8.1 mph - N/A   Overcast
2:15 PM 32.0 °F 24.2 °F 21.9 °F 66% 29.84 in 10.0 mi WSW 9.2 mph - N/A   Overcast
2:35 PM 32.0 °F 23.6 °F 21.4 °F 65% 29.83 in 10.0 mi SW 10.4 mph 16.1 mph N/A   Overcast
2:55 PM 31.5 °F 24.2 °F 22.6 °F 70% 29.83 in 5.0 mi WSW 8.1 mph 18.4 mph N/A Snow Light Snow
3:15 PM 32.0 °F 22.5 °F 21.9 °F 66% 29.82 in 10.0 mi WSW 12.7 mph 18.4 mph N/A   Overcast
3:35 PM 31.8 °F 23.3 °F 21.9 °F 67% 29.82 in 10.0 mi WSW 10.4 mph 17.3 mph N/A   Overcast
3:55 PM 31.6 °F 23.1 °F 22.5 °F 69% 29.81 in 10.0 mi SW 10.4 mph 16.1 mph N/A   Overcast
4:15 PM 31.8 °F 22.8 °F 22.3 °F 68% 29.81 in 10.0 mi SW 11.5 mph 18.4 mph N/A   Overcast
4:35 PM 31.1 °F 23.1 °F 22.1 °F 69% 29.81 in 10.0 mi WSW 9.2 mph 17.3 mph N/A   Scattered Clouds
4:55 PM 30.7 °F 22.0 °F 21.7 °F 69% 29.81 in 10.0 mi WSW 10.4 mph - N/A   Clear
5:15 PM 30.4 °F 24.5 °F 21.4 °F 69% 29.81 in 10.0 mi WSW 5.8 mph - N/A   Clear
5:35 PM 29.8 °F 23.9 °F 21.6 °F 71% 29.82 in 10.0 mi West 5.8 mph - N/A   Clear
5:55 PM 29.3 °F 22.3 °F 21.2 °F 72% 29.82 in 10.0 mi WSW 6.9 mph - N/A   Clear
6:15 PM 28.9 °F 21.9 °F 21.2 °F 73% 29.82 in 10.0 mi WSW 6.9 mph - N/A   Clear
6:35 PM 28.4 °F 22.2 °F 21.2 °F 74% 29.81 in 10.0 mi WSW 5.8 mph - N/A   Clear
6:55 PM 28.4 °F 22.2 °F 21.2 °F 74% 29.82 in 10.0 mi WSW 5.8 mph - N/A   Scattered Clouds
7:15 PM 28.8 °F 23.7 °F 21.7 °F 75% 29.82 in 10.0 mi WSW 4.6 mph - N/A   Overcast
7:35 PM 28.9 °F 21.9 °F 21.9 °F 75% 29.81 in 10.0 mi West 6.9 mph - N/A   Overcast
7:55 PM 29.3 °F 21.5 °F 22.1 °F 75% 29.80 in 10.0 mi West 8.1 mph - N/A   Overcast
8:15 PM 29.3 °F 21.5 °F 22.3 °F 75% 29.79 in 10.0 mi West 8.1 mph - N/A   Overcast
8:35 PM 29.3 °F 21.5 °F 22.6 °F 76% 29.78 in 10.0 mi West 8.1 mph - N/A   Overcast
8:55 PM 29.3 °F 21.5 °F 23.0 °F 77% 29.78 in 10.0 mi West 8.1 mph - N/A   Overcast
9:15 PM 29.3 °F 22.3 °F 23.0 °F 77% 29.76 in 10.0 mi West 6.9 mph - N/A   Overcast
9:35 PM 29.3 °F 24.3 °F 23.2 °F 78% 29.76 in 10.0 mi West 4.6 mph - N/A   Overcast
9:55 PM 29.3 °F 24.3 °F 23.5 °F 79% 29.76 in 10.0 mi West 4.6 mph - N/A   Overcast
10:15 PM 29.8 °F 24.9 °F 23.7 °F 78% 29.75 in 10.0 mi West 4.6 mph - N/A   Overcast
10:35 PM 30.0 °F 23.2 °F 23.9 °F 78% 29.74 in 10.0 mi West 6.9 mph - N/A   Overcast
10:55 PM 30.0 °F 25.2 °F 23.9 °F 78% 29.74 in 10.0 mi West 4.6 mph - N/A   Overcast
11:15 PM 30.2 °F 23.4 °F 24.3 °F 79% 29.73 in 10.0 mi West 6.9 mph - N/A   Overcast
11:35 PM 30.2 °F 23.4 °F 24.4 °F 79% 29.73 in 10.0 mi West 6.9 mph - N/A   Overcast
11:55 PM 30.2 °F 23.4 °F 24.6 °F 80% 29.72 in 10.0 mi WNW 6.9 mph - N/A   Overcast